www.pogodaiklimat.ru

Погода и климат >> Архив погоды >> Литва >> Nidoje


ПОГОДА в Nidoje

  • Прогноз погоды в Nidoje
  • Монитор погоды в Nidoje
  • Климат города

АРХИВ ПОГОДЫ в Nidoje

Время (UTC), дата Ветер
(напр.,м/с)
 
Видим.   Явления Облачность Т
(С)
Тd
(С)
f
(%)
Тe
(С)
Тes
(С)
Комфортность P
(гПа)
Po
(гПа)
Тmin
(С)
Tmax
(С)
R
(мм)
R24
(мм)
S
(см)
15 14.11 СЗ 2-4
{6}
20 км 8/4 300 м
[Cu med, cong Ac trans Cc]
+9.3 +7.3 87 +8 +8 1025.4 1025.0
18 14.11 СЗ 2-4
{5}
20 км 10/10 300 м
[Cu med, cong]
+9.6 +8.4 92 +8 +8 1026.5 1027.0 +10.6
21 14.11 СЗ 2-4
{5}
20 км 9/9 1000 м
[]
+9.6 +8.3 92 +8 +8 1027.9 1027.6
00 15.11 СЗ 1-3
{5}
20 км 9/9 1000 м
[]
+9.4 +7.9 90 +9 +9 1029.0 1028.7
03 15.11 штиль 0
{3}
20 км 10/10 1000 м
[]
+8.8 +7.9 94 +8 +8 1030.2 1029.9
06 15.11 штиль 0-2
{4}
20 км 9/9 1350 м
[Sc]
+8.3 +7.7 96 +7 +7 1031.5 1032.0 +8.3
09 15.11 штиль 0-2
{2}
20 км 9/9 1320 м
[Sc]
+8.9 +8.0 94 +8 +8 1032.8 1033.0
12 15.11 штиль 0
{2}
16 км 9/9 600 м
[Cu Sc]
+8.9 +8.1 95 +8 +8 1033.8 1033.5
15 15.11 ЮВ 4-5
{5}
20 км 9/9 600 м
[Cu Sc]
+8.5 +7.6 94 +5 +5 1034.9 1035.0
21 15.11 ЮВ 4-5
{7}
12 км 10/10 1000 м
[]
+6.8 +6.1 95 +3 +3 1037.1 1036.8
03 16.11 ЮВ 3-3
{3}
14 км 10/10 1000 м
[]
+6.0 +5.5 97 +3 +3 1039.1 1038.8
09 16.11 ЮВ 6-7
{7}
20 км 10/10 900 м
[Sc]
+5.9 +3.2 83 +1 +1 1042.2 1042.0
15 16.11 ЮВ 5-7
{10}
20 км 10/10 270 м
[Frnb]
+3.1 +1.4 89 -2 -2 1043.2 1043.0
21 16.11 Ю 5-7
{9}
20 км 10/10 300 м
[]
+3.7 +1.8 87 -1 -1 1043.7 1043.4
03 17.11 З 1-3
{7}
19 км ясно +2.2 -0.2 84 +1 +1 1043.8 1043.5
06 17.11 Ю 4-5
{5}
20 км 10/10 570 м
[Sc]
+3.9 +0.8 80 -1 -1 1043.2 1043.0 +2.0
12 17.11 Ю 5-6
{6}
18 км 9/9 500 м
[Sc]
+4.7 +2.2 84 -0 -0 1042.0 1041.7
18 17.11 З 2-7
{7}
20 км 10/10 630 м
[Sc]
+6.6 +2.6 76 +4 +4 1038.4 1038.0 +7.0
21 17.11 СЗ 2-7
{7}
20 км 10/10 300 м
[]
+7.1 +3.2 76 +5 +5 1036.5 1036.2
00 18.11 СЗ 4-8
{9}
20 км 10/10 600 м
[]
+6.9 +2.8 75 +3 +3 1034.1 1033.8
03 18.11 С 3-7
{9}
20 км 9/9 300 м
[]
+7.4 +4.6 82 +5 +5 1031.1 1030.8
06 18.11 С 4-6
{10}
20 км {ливн. осадки} 9/9 600 м
[Cb cap]
+7.0 +4.5 84 +3 +3 1028.6 1029.0 +6.5 0.4
09 18.11 СВ 5-9
{13}
20 км 10/10 600 м
[Cb cap]
+7.0 +3.7 79 +3 +3 1028.7 1029.0
15 18.11 СВ 5-8
{12}
20 км в посл. час ливневой дождь 9/9 300 м
[Cb cap]
+5.9 +3.6 85 +2 +2 1028.6 1029.0
21 18.11 СВ 9-13
{14}
20 км 6/6 600 м
[]
+4.3 +1.5 82 -2 -2 1029.3 1029.0
03 19.11 В 8-11
{12}
20 км 10/10 600 м
[]
+4.1 +0.5 77 -2 -2 1030.2 1029.9
09 19.11 СВ 7-11
{13}
20 км 9/9 450 м
[Cu Sc]
+4.3 +1.5 82 -1 -1 1031.5 1032.0
15 19.11 В 6-8
{10}
20 км 9/9 600 м
[Cu Sc]
+4.8 +1.2 77 -0 -0 1032.0 1032.0
21 19.11 В 6-9
{10}
20 км 9/9 300 м
[]
+4.0 +0.9 80 -1 -1 1032.9 1032.6
03 20.11 В 7-9
{10}
20 км 9/9 1000 м
[]
+2.8 +0.4 84 -3 -3 1031.8 1031.5
09 20.11 В 6-8
{10}
20 км 9/9 1170 м
[Sc]
+1.9 -0.5 84 -4 -4 1031.2 1031.0
15 20.11 В 6-9
{9}
20 км 10/10 930 м
[Sc]
+2.6 -0.5 80 -3 -3 1029.4 1029.0

 

Местоположение метеостанции Nidoje (Литва): широта 55.32 долгота 21.02 высота над уровнем моря 3 м.

В архиве по умолчанию представлена погода в Nidoje за последнюю неделю. Архивные данные за месяц целиком и за предыдущие месяцы, начиная с января 2011 года, Вы можете получить, выбрав интересующий диапазон дат из раскрывающегося списка и нажав кнопку "Ввод!".


*Определитесь, кто Вы:
робот инопланетянин человек

Внимание! Время в таблицах - всемирное. Для получения местного времени необходимо прибавить поправку, которая в Nidoje равна 2 ч.

Смотрите также архив погоды в соседних городах и на ближайших метеорологических станциях:

Погода в Рыбачьем (Калининградская область, Россия) (21 км)
Погода в ?ilut? (Литва) (27 км)
Погода в Klaip?da (Литва) (46 км)
Погода в Советске (Калининградская область, Россия) (64 км)
Погода в Пионерском (Калининградская область, Россия) (66 км)
Погода в Калининграде (Калининградская область, Россия) (74 км)
Погода в Рыбном Порту (Калининградская область, Россия) (78 км)
Погода в Laukuvos (Литва) (83 км)
Погода в Черняховске (Калининградская область, Россия) (91 км)
Погода в Балтийске (Калининградская область, Россия) (104 км)

Пояснения к столбцам:

Ветер - указаны скорость ветра в м/с - средняя за 10 мин, порывы в срок и между сроками (в фигурных скобках) и направление, откуда дует ветер: С - северный, СВ - северо-восточный, В - восточный, ЮВ - юго-восточный, Ю - южный, ЮЗ - юго-западный, З - западный, СЗ - северо-западный.
Видимость - горизонтальная дальность видимости в метрах или километрах. При видимости от 1 до 10 км при отсутствии осадков обычно наблюдается дымка, при ухудшении видимости до 1 км и менее - туман. В сухую погоду видимость может ухудшаться дымом, пылью или мглою.
Явления - указаны атмосферные явления, наблюдавшиеся в срок или в последний час перед сроком; фигурными скобками обозначены явления, наблюдавшиеся между сроками (за 1-3 часа до срока); квадратными скобками обозначены град или гололедные отложения с указанием их диаметра в мм.
Облачность - указаны через наклонную черту общая и нижняя облачность в баллах и высота нижней границы облаков в метрах; квадратными скобками обозначены формы облаков: Ci - перистые, Cs - перисто-слоистые, Cc - перисто-кучевые, Ac - высококучевые, As - высокослоистые, Sc - слоисто-кучевые, Ns - слоисто-дождевые, Cu - кучевые, Cb - кучево-дождевые. Подробнее классификацию облаков см. в Атласе облаков (PDF).
T - Температура воздуха - температура, измеренная на высоте 2 м над землей.
Td - Температура точки росы - температура, при понижении до которой содержащийся в воздухе водяной пар достигнет насыщения.
f - Относительная влажность воздуха - влажноcть воздуха, измеренная на высоте 2 м над землей.
Te - Эффективная температура - температура, которую ощущает одетый по сезону человек в тени. Характеристика душности погоды. При расчете учитывается влияние влажности воздуха и скорости ветра на теплоощущения человека.
Tes - Эффективная температура на солнце - температура, которую ощущает человек, с поправкой на солнечный нагрев. Характеристика знойности погоды. Зависит от высоты солнца над горизонтом, облачности и скорости ветра. Ночью, в пасмурную погоду, а также при ветре 12 м/с и более поправка равна нулю.
P - Атмосферное давление - приведенное к уровню моря атмосферное давление.
Po - Атмосферное давление - измеренное на уровне метеостанции атмосферное давление.
Tmin - Минимальная температура - минимум температуры воздуха на высоте 2 м над землей.
Tmax - Максимальная температура - максимум температуры воздуха на высоте 2 м над землей.
R - Количество осадков - Количество выпавших осадков за период времени, мм. При наведении курсора мыши на число - период времени, за который выпало указанное количество осадков.
R24 - Количество осадков - Количество выпавших осадков за 24 часа, мм.
S - Снежный покров - Высота снежного покрова, см. При наведении курсора мыши на число - состояние снежного покрова и степень покрытия местности в баллах.